Regional Weather Roundup
Issued by NWS Northern Indiana

Home | Current Version | Previous Version | Graphics & Text | Print | Product List | Glossary On
Versions: 1 2 3 4 5 6 7 8 9 10 11 12 13 14 15 16 17 18 19 20 21 22 23 24 25 26 27 28 29 30 31 32 33 34 35 36 37 38 39 40 41 42 43 44 45 46 47 48 49 50
000
ASUS43 KIWX 230700
RWRIWX

KIWX WEATHER ROUNDUP
NATIONAL WEATHER SERVICE NORTHERN INDIANA
300 AM EDT WED JUL 23 2014

NOTE: "FAIR" INDICATES FEW OR NO CLOUDS BELOW 12,000 FEET WITH NO
SIGNIFICANT WEATHER AND/OR OBSTRUCTIONS TO VISIBILITY.

* THESE STATIONS ARE NOT UNDER NWS QUALITY CONTROL. THEY ALSO MAY NOT
  REPORT WEATHER SUCH AS PRECIPITATION OR FOG.

INZ001>027-230800-
NORTHERN INDIANA

CITY           SKY/WX    TMP DP  RH WIND       PRES   REMARKS
GARY*          CLOUDY    71  67  89 N17G25    30.02R
VALPARAISO     LGT RAIN  69  67  93 SW6       30.00F
KNOX*          CLOUDY    75  68  80 NW8G17    30.01R VSB 1
SOUTH BEND     CLOUDY    71  66  84 S8        29.99F THUNDER
GOSHEN         LGT RAIN  70  66  87 W13       30.05S
MONTICELLO*    MOCLDY    74  70  88 SW6       29.98F
WARSAW*        RAIN      73  63  68 N16G23    30.05R
ANGOLA*        MOCLDY    73  64  73 W17       29.96F
FORT WAYNE     TSTM      74  71  91 SW12      29.97F FOG
PERU/GRISSOM   CLOUDY    73  73 100 SW5       30.00F

$$
INZ028>050-230800-
CENTRAL INDIANA

CITY           SKY/WX    TMP DP  RH WIND       PRES   REMARKS
LAFAYETTE      MOCLDY    73  70  90 CALM      29.99F
KOKOMO*        CLEAR     73  70  88 W6        30.00F
MUNCIE*        PTCLDY    75  66  73 SW7       30.01F
INDIANAPOLIS   MOCLDY    74  68  81 SW3       30.02S

$$
MIZ043>046-050>051-056>058-064>065-071>073-077>080-230800-
SOUTHWEST LOWER MICHIGAN

CITY           SKY/WX    TMP DP  RH WIND       PRES   REMARKS
BATTLE CREEK   LGT RAIN  70  63  78 NW5       29.99F
BENTON HARBOR  CLOUDY    69  67  93 CALM      29.98F
COLDWATER*     CLOUDY    73  64  71 W15       29.97S
HILLSDALE*     CLOUDY    76  63  63 NW10G16   29.95F
HOLLAND        CLOUDY    71  68  90 VRB3      30.01R
GRAND RAPIDS   CLOUDY    71  66  84 NW7       29.99S
KALAMAZOO      LGT RAIN  70  65  84 VRB3      29.99S
STURGIS*       LGT RAIN  70  66  88 SW5       29.98F
THREE RIVERS*  LGT RAIN  70  67  91 W8        30.00S

$$
OHZ001>008-015>018-024>025-230800-
NORTHWEST OHIO

CITY           SKY/WX    TMP DP  RH WIND       PRES   REMARKS
DEFIANCE       TSTM      75  70  84 SW10      29.95F
FINDLAY        CLOUDY    76  67  73 SW10      29.95F
TOLEDO EXPRESS TSTM      72  71  97 W16G24    29.93F VSB 3/4
TOLEDO METCALF HVY RAIN  74  70  87 S14       29.93F FOG
LIMA           CLOUDY    76  67  73 SW8       29.99F

$$
&&


USA.gov is the U.S. government's official web portal to all federal, state and local government web resources and services.